Location: Avully
(45.9633°N, 6.0228°E)
Time: 05:44:50
(UTC+00:00)

SL-4 R/B - Pass Details

Date: 23 May 2024
Orbit: 412 x 601 km, 51.6° (Epoch: 19 June)

Event Time Altitude Azimuth Distance (km) Brightness Sun altitude
Exits shadow 02:46:57 14° 213° (SSW) 1,663 3.8 -10.2°
Maximum altitude 02:50:30 46° 142° (SE) 792 2.8 -9.7°
Drops below altitude 10° 02:54:47 10° 69° (ENE) 1,946 6.1 -9.2°
Sets 02:57:10 0° 64° (ENE) 2,858 7.4 -8.9°
